This demonstration page uses our WeatherBlox Daily Observations layout. Learn more.

Left ArrowRight Arrow

Hourly Observations for February 2, 2018

Temp ( °F °C ) Dew Point ( °F °C ) Humidity (%) Winds ( mph kmh ) Pressure ( in mb ) Visibility ( mi km ) Precip ( " mm )
12:54 am 00:54 Clear 6 -14.4 1 -17.2 79 79 Calm 30.63 1037 10 16 0.00 0.00
1:54 am 01:54 Clear 8 -13.3 4 -15.6 83 83 Calm 30.63 1037 10 16 0.00 0.00
2:54 am 02:54 Clear 7 -13.9 1 -17.2 76 76 Calm 30.61 1037 10 16 0.00 0.00
3:54 am 03:54 Clear 8 -13.3 2 -16.7 76 76 WNW 3 6 30.61 1037 10 16 0.00 0.00
4:54 am 04:54 Mostly Clear 9 -12.8 3 -16.1 77 77 WSW 6 9 30.61 1037 10 16 0.00 0.00
5:54 am 05:54 Mostly Clear 8 -13.3 3 -16.1 80 80 SSE 3 6 30.61 1037 10 16 0.00 0.00
6:54 am 06:54 Mostly Cloudy 9 -12.8 4 -15.6 80 80 S 3 6 30.61 1037 10 16 0.00 0.00
7:33 am 07:33 Mostly Cloudy 9 -12.8 4 -15.6 80 80 S 5 7 30.65 1038 10 16 0.00 0.00
7:54 am 07:54 Cloudy 11 -11.7 5 -15 77 77 SSE 8 13 30.59 1036 10 16 0.00 0.00
8:15 am 08:15 Cloudy 13 -10.6 7 -13.9 77 77 SSE 9 15 30.62 1037 10 16 0.00 0.00
8:54 am 08:54 Cloudy 14 -10 7 -13.9 73 73 SSE 9 15 30.56 1035 10 16 0.00 0.00
9:54 am 09:54 Cloudy 18 -7.8 9 -12.8 68 68 S 16 26 30.53 1034 10 16 0.00 0.00
10:17 am 10:17 Partly Cloudy 21 -6.1 9 -12.8 59 59 S 14 22 30.53 1034 10 16 0.00 0.00
10:54 am 10:54 Sunny 24 -4.4 9 -12.8 52 52 S 20 31 30.51 1033 10 16 0.00 0.00
11:54 am 11:54 Mostly Sunny 29 -1.7 9 -12.8 43 43 S 17 28 30.45 1031 10 16 0.00 0.00
12:54 pm 12:54 Sunny 33 0.6 10 -12.2 38 38 SSW 20 31 30.39 1029 10 16 0.00 0.00
1:54 pm 13:54 Sunny 35 1.7 12 -11.1 38 38 SSW 26 43 30.32 1027 10 16 0.00 0.00
2:54 pm 14:54 Sunny 36 2.2 14 -10 40 40 SSW 22 35 30.29 1026 10 16 0.00 0.00
3:54 pm 15:54 Sunny 37 2.8 14 -10 39 39 SSW 14 22 30.27 1025 10 16 0.00 0.00
4:54 pm 16:54 Partly Cloudy 37 2.8 14 -10 39 39 S 15 24 30.24 1024 10 16 0.00 0.00
5:54 pm 17:54 Mostly Cloudy 36 2.2 14 -10 40 40 S 13 20 30.23 1024 10 16 0.00 0.00
6:54 pm 18:54 Partly Cloudy 35 1.7 14 -10 42 42 S 10 17 30.22 1023 10 16 0.00 0.00
7:54 pm 19:54 Clear 32 0 14 -10 47 47 SSE 9 15 30.21 1023 10 16 0.00 0.00
8:54 pm 20:54 Clear 29 -1.7 14 -10 54 54 SSE 9 15 30.19 1022 10 16 0.00 0.00
9:54 pm 21:54 Clear 27 -2.8 13 -10.6 55 55 SSE 8 13 30.16 1022 10 16 0.00 0.00
10:54 pm 22:54 Clear 26 -3.3 13 -10.6 57 57 S 8 13 30.14 1021 10 16 0.00 0.00
11:54 pm 23:54 Cloudy 31 -0.6 15 -9.4 52 52 S 8 13 30.10 1019 10 16 0.00 0.00

Powered by AerisWeather